Location: Dzierzno
(50.6159°N, 19.2852°E)
Time: 20:24:00
(UTC+00:00)

SAR-Lupe-4 - Pass Details

Date: 18 November 2025
Orbit: 476 x 483 km, 98.1° (Epoch: 03 October)

Event Time Altitude Azimuth Distance (km) Brightness Sun altitude
Rises 16:14:32 0° 172° (S) 2,535 7.3 -12.8°
Reaches altitude 10° 16:16:36 10° 176° (S) 1,659 6.4 -13.1°
Maximum altitude 16:20:08 62° 257° (WSW) 549 4.1 -13.6°
Drops below altitude 10° 16:23:41 10° 340° (NNW) 1,671 6.4 -14.2°
Sets 16:25:47 0° 343° (NNW) 2,555 7.3 -14.5°
